When you browse on this site, cookies collect data to enhance your experience and personalize the content and advertising you see.
Visit our Privacy Policy to learn more. By continuing to use the site, you agree to this use of cookies and data.
  • en Suisse
  • Liste des pays
  • À 7 jours
  • Température de l'eau
  • Carte météo
  • Widgets météo
  • user-avatar
    Se connecter

    Météo par heure à Staroe Shishlovo

    Ce jour, 12 Novembre, Mardi

    Heure Température Précipitation Vent Pression Humidité
    00:00 +5°C° 0 mm 4 m/s 743 mmHg 85%
    01:00 +5°C° 0 mm 4 m/s 743 mmHg 85%
    02:00 +5°C° 0 mm 3 m/s 744 mmHg 85%
    03:00 +4°C° 0 mm 3 m/s 745 mmHg 85%
    04:00 +4°C° 0 mm 3 m/s 745 mmHg 86%
    05:00 +4°C° 0 mm 3 m/s 746 mmHg 86%
    06:00 +4°C° 0 mm 3 m/s 747 mmHg 87%
    07:00 +4°C° 0 mm 2 m/s 747 mmHg 89%
    08:00 +4°C° 0 mm 2 m/s 748 mmHg 90%
    09:00 +4°C° 0 mm 2 m/s 748 mmHg 86%
    10:00 +5°C° 0 mm 2 m/s 749 mmHg 82%
    11:00 +7°C° 0 mm 1 m/s 749 mmHg 79%
    12:00 +7°C° 0 mm 1 m/s 749 mmHg 77%
    13:00 +7°C° 0 mm 1 m/s 750 mmHg 75%
    14:00 +6°C° 0 mm 2 m/s 750 mmHg 73%
    15:00 +5°C° 0 mm 2 m/s 750 mmHg 77%
    16:00 +5°C° 0 mm 1 m/s 750 mmHg 81%
    17:00 +5°C° 0 mm 1 m/s 750 mmHg 85%
    18:00 +3°C° 0 mm 2 m/s 750 mmHg 86%
    19:00 +3°C° 0 mm 2 m/s 750 mmHg 87%
    20:00 +2°C° 0 mm 3 m/s 750 mmHg 88%
    21:00 +2°C° 0 mm 3 m/s 750 mmHg 87%
    22:00 +2°C° 0 mm 3 m/s 751 mmHg 86%
    23:00 +1°C° 0 mm 4 m/s 751 mmHg 84%

    Demain, 13 Novembre, Mercredi

    Heure Température Précipitation Vent Pression Humidité
    00:00 +1°C° 0 mm 4 m/s 751 mmHg 83%
    01:00 +3°C° 0 mm 4 m/s 751 mmHg 82%
    02:00 +2°C° 0 mm 5 m/s 751 mmHg 81%
    03:00 +2°C° 0 mm 5 m/s 750 mmHg 81%
    04:00 +2°C° 0 mm 5 m/s 750 mmHg 80%
    05:00 +2°C° 0 mm 5 m/s 749 mmHg 80%
    06:00 +2°C° 0 mm 6 m/s 749 mmHg 80%
    07:00 +2°C° 0 mm 6 m/s 749 mmHg 80%
    08:00 +2°C° 0 mm 6 m/s 749 mmHg 80%
    09:00 +3°C° 0 mm 6 m/s 749 mmHg 78%
    10:00 +4°C° 0 mm 6 m/s 749 mmHg 77%
    11:00 +7°C° 0 mm 6 m/s 749 mmHg 75%
    12:00 +7°C° 0 mm 6 m/s 749 mmHg 75%
    13:00 +7°C° 0 mm 6 m/s 748 mmHg 75%
    14:00 +7°C° 0 mm 6 m/s 748 mmHg 75%
    15:00 +7°C° 0 mm 6 m/s 748 mmHg 77%
    16:00 +7°C° 0 mm 6 m/s 748 mmHg 79%
    17:00 +5°C° 0 mm 6 m/s 748 mmHg 80%
    18:00 +5°C° 0 mm 6 m/s 748 mmHg 81%
    19:00 +5°C° 0 mm 6 m/s 748 mmHg 82%
    20:00 +5°C° 0 mm 6 m/s 748 mmHg 83%
    21:00 +5°C° 0 mm 6 m/s 748 mmHg 85%
    22:00 +5°C° 0 mm 6 m/s 748 mmHg 86%
    23:00 +5°C° 0 mm 6 m/s 748 mmHg 88%

    Après-demain, 14 Novembre, Jeudi

    Heure Température Précipitation Vent Pression Humidité
    00:00 +5°C° 0 mm 6 m/s 748 mmHg 88%
    01:00 +5°C° 0 mm 6 m/s 748 mmHg 89%
    02:00 +4°C° 0 mm 6 m/s 748 mmHg 90%
    03:00 +4°C° 0 mm 6 m/s 748 mmHg 90%
    04:00 +4°C° 0 mm 6 m/s 747 mmHg 90%
    05:00 +5°C° 0 mm 5 m/s 747 mmHg 90%
    06:00 +4°C° 0 mm 6 m/s 748 mmHg 90%
    07:00 +3°C° 0 mm 6 m/s 748 mmHg 89%
    08:00 +3°C° 0 mm 6 m/s 748 mmHg 89%
    09:00 +4°C° 0 mm 6 m/s 748 mmHg 84%
    10:00 +5°C° 0 mm 6 m/s 749 mmHg 80%
    11:00 +7°C° 0 mm 6 m/s 749 mmHg 75%
    12:00 +7°C° 0 mm 6 m/s 749 mmHg 74%
    13:00 +7°C° 0 mm 5 m/s 749 mmHg 73%
    14:00 +7°C° 0 mm 5 m/s 749 mmHg 73%
    15:00 +6°C° 0 mm 5 m/s 749 mmHg 74%
    16:00 +6°C° 0 mm 5 m/s 749 mmHg 74%
    17:00 +5°C° 0 mm 5 m/s 749 mmHg 75%
    18:00 +3°C° 0 mm 5 m/s 749 mmHg 75%
    19:00 +3°C° 0 mm 5 m/s 749 mmHg 75%
    20:00 +2°C° 0 mm 5 m/s 750 mmHg 75%
    21:00 +2°C° 0 mm 5 m/s 750 mmHg 75%
    22:00 +2°C° 0 mm 5 m/s 750 mmHg 75%
    23:00 +1°C° 0 mm 5 m/s 750 mmHg 74%

    15 Novembre, Vendredi

    Heure Température Précipitation Vent Pression Humidité
    00:00 +1°C° 0 mm 4 m/s 750 mmHg 76%
    01:00 +1°C° 0 mm 4 m/s 751 mmHg 78%
    02:00 0°C° 0 mm 4 m/s 751 mmHg 79%
    03:00 0°C° 0 mm 4 m/s 750 mmHg 81%
    04:00 0°C° 0 mm 4 m/s 750 mmHg 82%
    05:00 0°C° 0 mm 4 m/s 750 mmHg 83%
    06:00 0°C° 0 mm 4 m/s 750 mmHg 84%
    07:00 0°C° 0 mm 4 m/s 750 mmHg 84%
    08:00 0°C° 0 mm 4 m/s 750 mmHg 84%
    09:00 0°C° 0 mm 4 m/s 750 mmHg 82%
    10:00 +1°C° 0 mm 4 m/s 751 mmHg 79%
    11:00 +2°C° 0 mm 5 m/s 751 mmHg 76%
    12:00 +3°C° 0 mm 4 m/s 751 mmHg 76%
    13:00 +3°C° 0 mm 4 m/s 750 mmHg 76%
    14:00 +3°C° 0 mm 4 m/s 750 mmHg 76%
    15:00 +3°C° 0 mm 3 m/s 750 mmHg 79%
    16:00 +2°C° 0 mm 3 m/s 750 mmHg 83%
    17:00 +1°C° 0 mm 3 m/s 750 mmHg 87%
    18:00 +1°C° 0 mm 3 m/s 750 mmHg 87%
    19:00 +1°C° 0 mm 3 m/s 750 mmHg 87%
    20:00 +1°C° 0 mm 3 m/s 750 mmHg 87%
    21:00 +1°C° 0 mm 3 m/s 751 mmHg 87%
    22:00 +1°C° 0 mm 3 m/s 751 mmHg 87%
    23:00 +1°C° 0 mm 3 m/s 751 mmHg 86%

    16 Novembre, Samedi

    Heure Température Précipitation Vent Pression Humidité
    00:00 +1°C° 0 mm 3 m/s 751 mmHg 87%
    01:00 +1°C° 0 mm 3 m/s 751 mmHg 87%
    02:00 +1°C° 0 mm 3 m/s 751 mmHg 87%
    03:00 0°C° 0 mm 3 m/s 751 mmHg 89%
    04:00 0°C° 0 mm 3 m/s 751 mmHg 90%
    05:00 0°C° 0 mm 3 m/s 751 mmHg 91%
    06:00 0°C° 0 mm 3 m/s 751 mmHg 92%
    07:00 0°C° 0 mm 3 m/s 751 mmHg 92%
    08:00 0°C° 0 mm 3 m/s 751 mmHg 92%
    09:00 +1°C° 0 mm 3 m/s 752 mmHg 88%
    10:00 +2°C° 0 mm 3 m/s 752 mmHg 84%
    11:00 +3°C° 0 mm 3 m/s 752 mmHg 80%
    12:00 +3°C° 0 mm 3 m/s 752 mmHg 80%
    13:00 +4°C° 0 mm 3 m/s 752 mmHg 79%
    14:00 +4°C° 0 mm 3 m/s 752 mmHg 79%
    15:00 +3°C° 0 mm 3 m/s 752 mmHg 83%
    16:00 +4°C° 0 mm 2 m/s 752 mmHg 86%
    17:00 +3°C° 0 mm 2 m/s 752 mmHg 90%
    18:00 +3°C° 0 mm 2 m/s 752 mmHg 90%
    19:00 +3°C° 0 mm 2 m/s 753 mmHg 91%
    20:00 +3°C° 0 mm 2 m/s 753 mmHg 91%
    21:00 +2°C° 0 mm 2 m/s 753 mmHg 92%
    22:00 +2°C° 0 mm 2 m/s 753 mmHg 92%
    23:00 +2°C° 0 mm 2 m/s 753 mmHg 92%

    17 Novembre, Dimanche

    Heure Température Précipitation Vent Pression Humidité
    00:00 +2°C° 0 mm 2 m/s 754 mmHg 92%
    01:00 +2°C° 0 mm 2 m/s 754 mmHg 92%
    02:00 +2°C° 0 mm 2 m/s 754 mmHg 92%
    03:00 +2°C° 0 mm 2 m/s 754 mmHg 92%
    04:00 +1°C° 0 mm 2 m/s 754 mmHg 92%
    05:00 +1°C° 0 mm 2 m/s 754 mmHg 92%
    06:00 +1°C° 0 mm 2 m/s 754 mmHg 91%
    07:00 +1°C° 0 mm 2 m/s 754 mmHg 91%
    08:00 +1°C° 0 mm 2 m/s 754 mmHg 91%
    09:00 +2°C° 0 mm 2 m/s 754 mmHg 87%
    10:00 +1°C° 0 mm 3 m/s 754 mmHg 83%
    11:00 +2°C° 0 mm 3 m/s 755 mmHg 80%
    12:00 +2°C° 0 mm 3 m/s 754 mmHg 80%
    13:00 +2°C° 0 mm 3 m/s 754 mmHg 79%
    14:00 +3°C° 0 mm 3 m/s 754 mmHg 79%
    15:00 +2°C° 0 mm 3 m/s 754 mmHg 83%
    16:00 +2°C° 0 mm 2 m/s 754 mmHg 86%
    17:00 +2°C° 0 mm 2 m/s 754 mmHg 89%
    18:00 +1°C° 0 mm 2 m/s 754 mmHg 90%
    19:00 +1°C° 0 mm 2 m/s 754 mmHg 90%
    20:00 +1°C° 0 mm 2 m/s 754 mmHg 90%
    21:00 +1°C° 0 mm 2 m/s 754 mmHg 90%
    22:00 +1°C° 0 mm 2 m/s 753 mmHg 89%
    23:00 -1°C° 0 mm 2 m/s 753 mmHg 89%
    Voir plus